Time,TemperatureF,DewpointF,PressureIn,WindDirection,WindDirectionDegrees,WindSpeedMPH,WindSpeedGustMPH,Humidity,HourlyPrecipIn,Conditions,Clouds,dailyrainin,SoftwareType,DateUTC
2013-04-17 00:13:00,68.6,67.0,30.12,ENE,60,0.0,0.0,94,0.00,,,0.00,weatherlink.com 1.10,2013-04-17 05:13:00,
2013-04-17 00:29:00,68.4,67.0,30.12,ENE,60,0.0,0.0,95,0.00,,,0.00,weatherlink.com 1.10,2013-04-17 05:29:00,
2013-04-17 00:44:00,68.2,67.0,30.12,ENE,58,0.0,0.0,96,0.00,,,0.00,weatherlink.com 1.10,2013-04-17 05:44:00,
2013-04-17 00:59:00,67.8,67.0,30.12,ENE,58,0.0,0.0,96,0.00,,,0.00,weatherlink.com 1.10,2013-04-17 05:59:00,
2013-04-17 01:14:00,67.4,66.0,30.12,ENE,58,0.0,0.0,96,0.00,,,0.00,weatherlink.com 1.10,2013-04-17 06:14:00,
2013-04-17 01:29:00,67.4,67.0,30.12,ENE,58,0.0,0.0,97,0.00,,,0.00,weatherlink.com 1.10,2013-04-17 06:29:00,
2013-04-17 01:44:00,67.3,67.0,30.12,ENE,58,0.0,0.0,97,0.00,,,0.00,weatherlink.com 1.10,2013-04-17 06:44:00,
2013-04-17 01:59:00,67.5,67.0,30.12,ENE,60,0.0,0.0,97,0.00,,,0.00,weatherlink.com 1.10,2013-04-17 06:59:00,
2013-04-17 02:14:00,67.6,67.0,30.11,ENE,68,0.0,0.0,98,0.00,,,0.00,weatherlink.com 1.10,2013-04-17 07:14:00,
2013-04-17 02:29:00,67.7,67.0,30.11,East,82,0.0,0.0,98,0.00,,,0.00,weatherlink.com 1.10,2013-04-17 07:29:00,
2013-04-17 02:44:00,67.6,67.0,30.11,East,82,0.0,0.0,97,0.00,,,0.00,weatherlink.com 1.10,2013-04-17 07:44:00,
2013-04-17 02:59:00,67.5,67.0,30.10,ENE,71,0.0,0.0,98,0.00,,,0.00,weatherlink.com 1.10,2013-04-17 07:59:00,
2013-04-17 03:14:00,67.7,67.0,30.10,ENE,75,2.0,2.0,98,0.00,,,0.00,weatherlink.com 1.10,2013-04-17 08:14:00,
2013-04-17 03:29:00,67.5,67.0,30.10,East,84,0.0,1.0,97,0.00,,,0.00,weatherlink.com 1.10,2013-04-17 08:29:00,
2013-04-17 03:44:00,67.0,66.0,30.10,East,84,0.0,0.0,97,0.00,,,0.00,weatherlink.com 1.10,2013-04-17 08:44:00,
2013-04-17 03:59:00,67.1,67.0,30.10,East,85,0.0,0.0,98,0.00,,,0.00,weatherlink.com 1.10,2013-04-17 08:59:00,
2013-04-17 04:14:00,67.0,67.0,30.10,East,84,0.0,0.0,98,0.00,,,0.00,weatherlink.com 1.10,2013-04-17 09:14:00,
2013-04-17 04:29:00,67.3,67.0,30.09,East,86,0.0,0.0,98,0.00,,,0.00,weatherlink.com 1.10,2013-04-17 09:29:00,
2013-04-17 04:44:00,67.5,67.0,30.09,ENE,77,2.0,2.0,98,0.00,,,0.00,weatherlink.com 1.10,2013-04-17 09:44:00,
2013-04-17 04:59:00,67.6,67.0,30.09,ENE,71,1.0,3.0,98,0.00,,,0.00,weatherlink.com 1.10,2013-04-17 09:59:00,
2013-04-17 05:14:00,67.5,67.0,30.09,ESE,104,0.0,2.0,98,0.00,,,0.00,weatherlink.com 1.10,2013-04-17 10:14:00,
2013-04-17 05:29:00,67.3,67.0,30.09,East,93,2.0,3.0,98,0.00,,,0.00,weatherlink.com 1.10,2013-04-17 10:29:00,
2013-04-17 05:44:00,67.4,67.0,30.10,East,83,3.0,5.0,97,0.00,,,0.00,weatherlink.com 1.10,2013-04-17 10:44:00,
2013-04-17 05:59:00,67.8,67.0,30.11,East,84,2.0,5.0,96,0.00,,,0.00,weatherlink.com 1.10,2013-04-17 10:59:00,
2013-04-17 06:14:00,67.8,67.0,30.11,ENE,77,1.0,5.0,96,0.00,,,0.00,weatherlink.com 1.10,2013-04-17 11:14:00,
2013-04-17 06:29:00,68.0,67.0,30.11,ENE,75,3.0,6.0,96,0.00,,,0.00,weatherlink.com 1.10,2013-04-17 11:29:00,
2013-04-17 06:44:00,68.2,67.0,30.13,ENE,71,4.0,6.0,95,0.00,,,0.00,weatherlink.com 1.10,2013-04-17 11:44:00,
2013-04-17 06:59:00,68.3,67.0,30.13,ENE,67,2.0,4.0,95,0.00,,,0.00,weatherlink.com 1.10,2013-04-17 11:59:00,
2013-04-17 07:14:00,68.5,67.0,30.14,ENE,75,2.0,4.0,95,0.00,,,0.00,weatherlink.com 1.10,2013-04-17 12:14:00,
2013-04-17 07:29:00,69.6,68.0,30.14,East,87,3.0,8.0,94,0.00,,,0.00,weatherlink.com 1.10,2013-04-17 12:29:00,
2013-04-17 07:44:00,70.0,68.0,30.15,ENE,68,3.0,7.0,93,0.00,,,0.00,weatherlink.com 1.10,2013-04-17 12:44:00,
2013-04-17 07:59:00,69.6,68.0,30.14,ENE,63,4.0,9.0,93,0.00,,,0.00,weatherlink.com 1.10,2013-04-17 12:59:00,
2013-04-17 08:14:00,70.3,68.0,30.14,ENE,66,6.0,7.0,92,0.00,,,0.00,weatherlink.com 1.10,2013-04-17 13:14:00,
2013-04-17 08:29:00,70.8,68.0,30.15,East,86,6.0,7.0,91,0.00,,,0.00,weatherlink.com 1.10,2013-04-17 13:29:00,
2013-04-17 08:44:00,71.8,69.0,30.15,SE,138,3.0,6.0,89,0.00,,,0.00,weatherlink.com 1.10,2013-04-17 13:44:00,
2013-04-17 08:59:00,72.0,68.0,30.15,East,82,3.0,8.0,88,0.00,,,0.00,weatherlink.com 1.10,2013-04-17 13:59:00,
2013-04-17 09:14:00,73.0,68.0,30.15,ENE,71,5.0,9.0,85,0.00,,,0.00,weatherlink.com 1.10,2013-04-17 14:14:00,
2013-04-17 09:29:00,73.1,68.0,30.15,SE,132,5.0,9.0,83,0.00,,,0.00,weatherlink.com 1.10,2013-04-17 14:29:00,
2013-04-17 09:44:00,72.7,68.0,30.15,East,83,7.0,7.0,85,0.00,,,0.00,weatherlink.com 1.10,2013-04-17 14:44:00,
2013-04-17 09:59:00,73.0,68.0,30.15,ENE,67,3.0,5.0,85,0.00,,,0.00,weatherlink.com 1.10,2013-04-17 14:59:00,
2013-04-17 10:14:00,74.4,69.0,30.16,ENE,75,4.0,7.0,82,0.00,,,0.00,weatherlink.com 1.10,2013-04-17 15:14:00,
2013-04-17 10:30:00,75.3,69.0,30.16,East,91,3.0,5.0,81,0.00,,,0.00,weatherlink.com 1.10,2013-04-17 15:30:00,
2013-04-17 10:45:00,75.8,70.0,30.16,ESE,119,2.0,6.0,81,0.00,,,0.00,weatherlink.com 1.10,2013-04-17 15:45:00,
2013-04-17 11:00:00,76.6,70.0,30.16,ENE,76,7.0,9.0,79,0.00,,,0.00,weatherlink.com 1.10,2013-04-17 16:00:00,
2013-04-17 11:15:00,76.5,70.0,30.15,SSE,152,3.0,7.0,80,0.00,,,0.00,weatherlink.com 1.10,2013-04-17 16:15:00,
2013-04-17 11:30:00,77.1,70.0,30.14,SE,125,3.0,6.0,79,0.00,,,0.00,weatherlink.com 1.10,2013-04-17 16:30:00,
2013-04-17 11:45:00,78.0,70.0,30.14,ENE,65,2.0,9.0,75,0.00,,,0.00,weatherlink.com 1.10,2013-04-17 16:45:00,
2013-04-17 12:00:00,79.2,71.0,30.13,East,86,3.0,7.0,76,0.00,,,0.00,weatherlink.com 1.10,2013-04-17 17:00:00,
2013-04-17 12:15:00,79.3,70.0,30.13,ENE,69,2.0,9.0,73,0.00,,,0.00,weatherlink.com 1.10,2013-04-17 17:15:00,
2013-04-17 12:30:00,79.2,70.0,30.12,ENE,60,4.0,8.0,74,0.00,,,0.00,weatherlink.com 1.10,2013-04-17 17:30:00,
2013-04-17 12:45:00,80.8,71.0,30.12,SE,133,2.0,7.0,73,0.00,,,0.00,weatherlink.com 1.10,2013-04-17 17:45:00,
2013-04-17 13:00:00,81.1,70.0,30.12,ENE,62,7.0,10.0,70,0.00,,,0.00,weatherlink.com 1.10,2013-04-17 18:00:00,
2013-04-17 13:15:00,80.5,70.0,30.11,East,94,3.0,8.0,70,0.00,,,0.00,weatherlink.com 1.10,2013-04-17 18:15:00,
2013-04-17 13:30:00,81.0,71.0,30.11,South,172,2.0,6.0,72,0.00,,,0.00,weatherlink.com 1.10,2013-04-17 18:30:00,
2013-04-17 13:45:00,81.2,71.0,30.11,ENE,77,4.0,6.0,70,0.00,,,0.00,weatherlink.com 1.10,2013-04-17 18:45:00,
2013-04-17 14:00:00,81.5,71.0,30.10,East,85,2.0,6.0,70,0.00,,,0.00,weatherlink.com 1.10,2013-04-17 19:00:00,
2013-04-17 14:15:00,81.6,71.0,30.10,East,91,4.0,7.0,69,0.00,,,0.00,weatherlink.com 1.10,2013-04-17 19:15:00,
2013-04-17 14:30:00,81.4,71.0,30.09,ENE,72,3.0,7.0,70,0.00,,,0.00,weatherlink.com 1.10,2013-04-17 19:30:00,
2013-04-17 14:45:00,82.1,71.0,30.08,NE,55,2.0,7.0,68,0.00,,,0.00,weatherlink.com 1.10,2013-04-17 19:45:00,
2013-04-17 15:00:00,83.4,70.0,30.08,SE,131,4.0,7.0,65,0.00,,,0.00,weatherlink.com 1.10,2013-04-17 20:00:00,
2013-04-17 15:15:00,82.8,70.0,30.07,NE,55,4.0,7.0,66,0.00,,,0.00,weatherlink.com 1.10,2013-04-17 20:15:00,
2013-04-17 15:30:00,82.7,70.0,30.07,East,87,2.0,7.0,66,0.00,,,0.00,weatherlink.com 1.10,2013-04-17 20:30:00,
2013-04-17 15:45:00,82.4,69.0,30.06,ENE,63,3.0,8.0,65,0.00,,,0.00,weatherlink.com 1.10,2013-04-17 20:45:00,
2013-04-17 16:00:00,81.7,70.0,30.06,ENE,77,4.0,7.0,68,0.00,,,0.00,weatherlink.com 1.10,2013-04-17 21:00:00,
2013-04-17 16:15:00,81.9,70.0,30.05,East,79,3.0,5.0,68,0.00,,,0.00,weatherlink.com 1.10,2013-04-17 21:15:00,
2013-04-17 16:30:00,81.6,71.0,30.05,East,84,4.0,7.0,69,0.00,,,0.00,weatherlink.com 1.10,2013-04-17 21:30:00,
2013-04-17 16:45:00,81.4,70.0,30.06,ENE,62,4.0,7.0,69,0.00,,,0.00,weatherlink.com 1.10,2013-04-17 21:45:00,
2013-04-17 17:00:00,81.4,70.0,30.05,ESE,112,2.0,8.0,69,0.00,,,0.00,weatherlink.com 1.10,2013-04-17 22:00:00,
2013-04-17 17:15:00,81.5,71.0,30.05,ENE,70,2.0,4.0,71,0.00,,,0.00,weatherlink.com 1.10,2013-04-17 22:15:00,
2013-04-17 17:30:00,81.6,71.0,30.05,East,87,3.0,7.0,69,0.00,,,0.00,weatherlink.com 1.10,2013-04-17 22:30:00,
2013-04-17 17:45:00,81.6,70.0,30.04,ESE,119,4.0,6.0,67,0.00,,,0.00,weatherlink.com 1.10,2013-04-17 22:45:00,
2013-04-17 18:00:00,80.8,69.0,30.04,ESE,108,6.0,6.0,68,0.00,,,0.00,weatherlink.com 1.10,2013-04-17 23:00:00,
2013-04-17 18:15:00,79.6,69.0,30.04,East,97,3.0,6.0,70,0.00,,,0.00,weatherlink.com 1.10,2013-04-17 23:15:00,
2013-04-17 18:30:00,78.8,69.0,30.04,ENE,77,2.0,4.0,72,0.00,,,0.00,weatherlink.com 1.10,2013-04-17 23:30:00,
2013-04-17 18:45:00,78.0,69.0,30.03,East,84,1.0,2.0,74,0.00,,,0.00,weatherlink.com 1.10,2013-04-17 23:45:00,
2013-04-17 19:00:00,77.4,69.0,30.03,ENE,68,1.0,3.0,76,0.00,,,0.00,weatherlink.com 1.10,2013-04-18 00:00:00,
2013-04-17 19:15:00,76.7,69.0,30.03,East,85,2.0,3.0,77,0.00,,,0.00,weatherlink.com 1.10,2013-04-18 00:15:00,
2013-04-17 19:30:00,76.0,69.0,30.04,SE,134,0.0,2.0,79,0.00,,,0.00,weatherlink.com 1.10,2013-04-18 00:30:00,
2013-04-17 19:45:00,74.7,69.0,30.04,SE,125,0.0,1.0,82,0.00,,,0.00,weatherlink.com 1.10,2013-04-18 00:45:00,
2013-04-17 20:00:00,73.9,68.0,30.04,East,87,1.0,3.0,82,0.00,,,0.00,weatherlink.com 1.10,2013-04-18 01:00:00,
2013-04-17 20:15:00,73.3,68.0,30.04,East,83,0.0,2.0,84,0.00,,,0.00,weatherlink.com 1.10,2013-04-18 01:15:00,
2013-04-17 20:30:00,72.4,68.0,30.04,SE,136,0.0,1.0,85,0.00,,,0.00,weatherlink.com 1.10,2013-04-18 01:30:00,
2013-04-17 20:45:00,71.8,68.0,30.05,ENE,72,1.0,2.0,87,0.00,,,0.00,weatherlink.com 1.10,2013-04-18 01:45:00,
2013-04-17 21:01:00,72.2,68.0,30.06,East,79,1.0,4.0,85,0.00,,,0.00,weatherlink.com 1.10,2013-04-18 02:01:00,
2013-04-17 21:16:00,72.3,67.0,30.05,East,96,2.0,5.0,83,0.00,,,0.00,weatherlink.com 1.10,2013-04-18 02:16:00,
2013-04-17 21:31:00,72.1,66.0,30.05,ENE,68,2.0,4.0,82,0.00,,,0.00,weatherlink.com 1.10,2013-04-18 02:31:00,
2013-04-17 21:46:00,71.7,66.0,30.05,ESE,113,2.0,7.0,82,0.00,,,0.00,weatherlink.com 1.10,2013-04-18 02:46:00,
2013-04-17 22:01:00,70.8,66.0,30.06,ENE,63,2.0,4.0,84,0.00,,,0.00,weatherlink.com 1.10,2013-04-18 03:01:00,
2013-04-17 22:16:00,70.3,66.0,30.06,ENE,70,0.0,4.0,86,0.00,,,0.00,weatherlink.com 1.10,2013-04-18 03:16:00,
2013-04-17 22:31:00,69.4,66.0,30.05,East,82,1.0,1.0,88,0.00,,,0.00,weatherlink.com 1.10,2013-04-18 03:31:00,
2013-04-17 22:46:00,68.4,65.0,30.05,East,96,1.0,1.0,90,0.00,,,0.00,weatherlink.com 1.10,2013-04-18 03:46:00,
2013-04-17 23:01:00,67.8,65.0,30.05,ENE,71,1.0,1.0,90,0.00,,,0.00,weatherlink.com 1.10,2013-04-18 04:01:00,
2013-04-17 23:16:00,67.2,64.0,30.04,ESE,107,0.0,1.0,90,0.00,,,0.00,weatherlink.com 1.10,2013-04-18 04:16:00,
2013-04-17 23:31:00,66.7,64.0,30.04,East,83,0.0,1.0,91,0.00,,,0.00,weatherlink.com 1.10,2013-04-18 04:31:00,
2013-04-17 23:46:00,66.2,64.0,30.04,East,84,0.0,1.0,93,0.00,,,0.00,weatherlink.com 1.10,2013-04-18 04:46:00,